Powrót do katalogu

TITAN 3C TRANSTAGE R/B

AktywnyGEO
NORAD 5854·ROCKET BODY·🇺🇸 United States

Wystrzelony Mar 1, 1972 z Cape Canaveral Space Force Station

Loading…

TLE

ŚwieżeSource: Space-Track

Epoka: Sep 14, 2026, 07:56 UTC

1 05854U 72010B   26257.33117759 -.00000110  00000-0  00000-0 0  9993
2 05854   1.1487  89.5702 0063517 341.5935  19.3424  1.00661379 25809

Śledź TITAN 3C TRANSTAGE R/B w czasie rzeczywistym z AllMySat

Download on the App Store